FW6402 Weather Reports


Display with metric or nautical units.
time (UTC)temp
F
wind
direction
speed
MPH
gust
MPH
rain 1hr
in
rain 24hr
in
rain mn
in
humidity
%
barometer
mb
20200711003835 83 139 0.0 1.0 0.00 0.00 0.00 44 1021.7
20200711003332 82 129 0.0 1.0 0.00 0.00 0.00 43 1021.7
20200711002840 82 254 0.0 2.0 0.00 0.00 0.00 42 1021.7
20200711002325 82 208 0.0 3.0 0.00 0.00 0.00 43 1021.8
20200711001828 83 232 1.0 3.0 0.00 0.00 0.00 42 1021.9
20200711001328 84 351 1.0 2.0 0.00 0.00 0.00 42 1021.9
20200711000825 84 56 0.0 2.0 0.00 0.00 0.00 45 1021.8
20200711000337 83 140 0.0 2.0 0.00 0.00 0.00 42 1021.8
20200710235842 83 184 1.0 2.0 0.00 0.00 0.00 42 1022.0
20200710235342 83 330 0.0 2.0 0.00 0.00 0.00 44 1022.0
20200710234839 83 162 1.0 2.0 0.00 0.00 0.00 46 1022.0
20200710234336 82 321 0.0 2.0 0.00 0.00 0.00 43 1022.2
20200710233838 83 195 0.0 3.0 0.00 0.00 0.00 45 1022.2
20200710233336 82 93 0.0 3.0 0.00 0.00 0.00 44 1022.1
20200710232829 83 214 1.0 3.0 0.00 0.00 0.00 44 1022.2
20200710232339 83 348 1.0 3.0 0.00 0.00 0.00 44 1022.2
20200710231838 83 183 1.0 3.0 0.00 0.00 0.00 45 1022.2
20200710231336 83 330 1.0 2.0 0.00 0.00 0.00 46 1022.2
20200710230827 82 207 1.0 3.0 0.00 0.00 0.00 48 1022.4
20200710230349 82 58 1.0 3.0 0.00 0.00 0.00 45 1022.4
20200710225845 83 140 1.0 2.0 0.00 0.00 0.00 44 1022.4
20200710225329 83 174 0.0 2.0 0.00 0.00 0.00 46 1022.5
20200710224824 82 312 0.0 2.0 0.00 0.00 0.00 45 1022.6
20200710223832 81 206 0.0 4.0 0.00 0.00 0.00 45 1022.7
20200710223336 81 131 1.0 4.0 0.00 0.00 0.00 44 1022.7
20200710222841 81 164 1.0 4.0 0.00 0.00 0.00 48 1022.6
20200710222338 81 53 0.0 4.0 0.00 0.00 0.00 46 1022.7
20200710221838 81 148 1.0 4.0 0.00 0.00 0.00 46 1022.8
20200710221347 82 37 1.0 2.0 0.00 0.00 0.00 45 1022.8
20200710220847 81 99 0.0 2.0 0.00 0.00 0.00 51 1022.9
20200710220348 81 45 1.0 3.0 0.00 0.00 0.00 46 1022.9
20200710215823 81 143 1.0 2.0 0.00 0.00 0.00 50 1022.9
20200710215324 80 160 0.0 4.0 0.00 0.00 0.00 52 1023.0
20200710214836 80 200 1.0 5.0 0.00 0.00 0.00 50 1023.0
20200710214342 80 44 1.0 4.0 0.00 0.00 0.00 48 1023.0
20200710213841 80 337 1.0 4.0 0.00 0.00 0.00 49 1023.1
20200710213333 80 70 0.0 4.0 0.00 0.00 0.00 47 1023.1
20200710212848 80 299 1.0 4.0 0.00 0.00 0.00 49 1023.1
20200710212335 79 356 1.0 4.0 0.00 0.00 0.00 49 1023.2
20200710211831 80 190 1.0 2.0 0.00 0.00 0.00 48 1023.1
20200710211355 80 338 1.0 2.0 0.00 0.00 0.00 53 1023.1
20200710210844 80 52 1.0 2.0 0.00 0.00 0.00 50 1023.3
20200710210322 80 130 1.0 2.0 0.00 0.00 0.00 48 1023.3
20200710205836 79 236 0.0 3.0 0.00 0.00 0.00 52 1023.3
20200710205331 79 77 0.0 3.0 0.00 0.00 0.00 51 1023.4
20200710204851 79 133 1.0 3.0 0.00 0.00 0.00 50 1023.5
20200710204326 79 177 1.0 2.0 0.00 0.00 0.00 53 1023.5
20200710203823 79 133 1.0 4.0 0.00 0.00 0.00 51 1023.4
20200710203341 79 69 1.0 4.0 0.00 0.00 0.00 53 1023.4
20200710202836 79 109 1.0 4.0 0.00 0.00 0.00 51 1023.5
20200710202332 79 100 0.0 2.0 0.00 0.00 0.00 50 1023.5
20200710201832 78 44 1.0 2.0 0.00 0.00 0.00 51 1023.6
20200710201331 79 73 0.0 3.0 0.00 0.00 0.00 51 1023.7
20200710200831 79 114 0.0 3.0 0.00 0.00 0.00 53 1023.7
20200710200336 79 72 0.0 2.0 0.00 0.00 0.00 57 1023.7
20200710195831 78 349 0.0 2.0 0.00 0.00 0.00 54 1023.7
20200710195330 77 247 0.0 2.0 0.00 0.00 0.00 54 1023.8
20200710194826 77 48 1.0 3.0 0.00 0.00 0.00 53 1023.8
20200710194348 77 329 1.0 3.0 0.00 0.00 0.00 52 1023.8
20200710193847 77 122 1.0 2.0 0.00 0.00 0.00 57 1023.9
20200710193328 77 105 1.0 4.0 0.00 0.00 0.00 52 1023.8
20200710192840 77 49 1.0 4.0 0.00 0.00 0.00 55 1023.8
20200710192322 77 40 1.0 2.0 0.00 0.00 0.00 55 1023.9
20200710191822 76 38 0.0 2.0 0.00 0.00 0.00 56 1023.9
20200710191339 76 56 0.0 4.0 0.00 0.00 0.00 56 1023.9
20200710190849 75 79 1.0 4.0 0.00 0.00 0.00 54 1023.9
20200710190343 75 70 1.0 2.0 0.00 0.00 0.00 58 1023.9
20200710185837 75 56 1.0 2.0 0.00 0.00 0.00 57 1023.9
20200710185337 75 114 0.0 3.0 0.00 0.00 0.00 56 1024.0
20200710184835 75 49 1.0 3.0 0.00 0.00 0.00 57 1023.9
20200710184327 74 159 0.0 5.0 0.00 0.00 0.00 60 1024.0
20200710183830 74 305 0.0 5.0 0.00 0.00 0.00 57 1024.0
20200710183330 74 338 1.0 3.0 0.00 0.00 0.00 59 1024.0
20200710182825 74 8 1.0 3.0 0.00 0.00 0.00 58 1024.1
20200710182326 74 217 0.0 2.0 0.00 0.00 0.00 58 1024.1
20200710181827 74 15 1.0 2.0 0.00 0.00 0.00 57 1024.1
20200710181325 74 334 1.0 2.0 0.00 0.00 0.00 60 1024.1
20200710180823 74 149 0.0 2.0 0.00 0.00 0.00 60 1024.2
20200710180341 74 142 1.0 2.0 0.00 0.00 0.00 59 1024.1
20200710175838 73 90 0.0 2.0 0.00 0.00 0.00 60 1024.1
20200710175325 73 339 0.0 3.0 0.00 0.00 0.00 62 1024.2
20200710174823 73 232 0.0 3.0 0.00 0.00 0.00 61 1024.2
20200710174336 72 229 0.0 1.0 0.00 0.00 0.00 62 1024.2
20200710173834 71 158 0.0 2.0 0.00 0.00 0.00 62 1024.3
20200710173334 71 337 0.0 2.0 0.00 0.00 0.00 60 1024.3
20200710172843 70 340 0.0 2.0 0.00 0.00 0.00 63 1024.2
20200710172339 70 143 0.0 3.0 0.00 0.00 0.00 63 1024.2
20200710171838 70 53 1.0 3.0 0.00 0.00 0.00 62 1024.1
20200710171337 70 221 1.0 2.0 0.00 0.00 0.00 63 1024.0
20200710170836 70 156 1.0 3.0 0.00 0.00 0.00 63 1024.2
20200710170337 69 250 0.0 3.0 0.00 0.00 0.00 64 1024.2
20200710165835 70 101 0.0 2.0 0.00 0.00 0.00 66 1024.1
20200710165338 69 245 1.0 2.0 0.00 0.00 0.00 65 1024.1
20200710164839 69 160 0.0 1.0 0.00 0.00 0.00 67 1024.3
20200710164339 68 141 0.0 1.0 0.00 0.00 0.00 69 1024.3
20200710163836 67 4 0.0 1.0 0.00 0.00 0.00 71 1024.4
20200710163331 67 13 0.0 1.0 0.00 0.00 0.00 69 1024.4
20200710162836 66 22 0.0 1.0 0.00 0.00 0.00 71 1024.5
20200710162346 66 15 0.0 1.0 0.00 0.00 0.00 67 1024.5
20200710161836 66 43 0.0 1.0 0.00 0.00 0.00 67 1024.6
20200710161339 65 311 0.0 1.0 0.00 0.00 0.00 68 1024.6
20200710160834 64 67 0.0 1.0 0.00 0.00 0.00 71 1024.5
20200710160335 65 66 0.0 1.0 0.00 0.00 0.00 70 1024.5
20200710155838 65 55 0.0 1.0 0.00 0.00 0.00 69 1024.5
20200710155335 65 345 0.0 1.0 0.00 0.00 0.00 70 1024.5
20200710154834 64 344 0.0 1.0 0.00 0.00 0.00 71 1024.5
20200710154335 64 346 1.0 2.0 0.00 0.00 0.00 71 1024.3
20200710153831 63 240 1.0 2.0 0.00 0.00 0.00 71 1024.4
20200710153335 63 343 0.0 1.0 0.00 0.00 0.00 73 1024.4
20200710152833 62 126 0.0 2.0 0.00 0.00 0.00 73 1024.4
20200710152332 62 44 1.0 2.0 0.00 0.00 0.00 73 1024.3
20200710151835 61 292 0.0 1.0 0.00 0.00 0.00 75 1024.3
20200710151327 60 292 0.0 0.0 0.00 0.00 0.00 79 1024.4
20200710150831 60 290 0.0 1.0 0.00 0.00 0.00 77 1024.4
20200710150331 60 290 0.0 1.0 0.00 0.00 0.00 78 1024.3
20200710145831 60 193 0.0 0.0 0.00 0.00 0.00 78 1024.3
20200710145330 59 193 0.0 0.0 0.00 0.00 0.00 79 1024.3
20200710144830 59 194 0.0 0.0 0.00 0.00 0.00 78 1024.3
20200710144324 59 253 0.0 0.0 0.00 0.00 0.00 78 1024.3
20200710143829 59 253 0.0 0.0 0.00 0.00 0.00 78 1024.3
20200710143327 59 248 0.0 0.0 0.00 0.00 0.00 79 1024.1
20200710142826 58 248 0.0 0.0 0.00 0.00 0.00 81 1024.1
20200710142335 58 257 0.0 0.0 0.00 0.00 0.00 80 1024.0
20200710141835 58 255 0.0 0.0 0.00 0.00 0.00 80 1023.9
20200710141335 58 255 0.0 0.0 0.00 0.00 0.00 82 1023.9
20200710140836 58 202 0.0 0.0 0.00 0.00 0.00 82 1023.9
20200710140335 57 201 0.0 0.0 0.00 0.00 0.00 83 1023.9
20200710135832 57 196 0.0 0.0 0.00 0.00 0.00 82 1023.8
20200710135334 57 167 0.0 0.0 0.00 0.00 0.00 83 1023.8
20200710134848 57 167 0.0 0.0 0.00 0.00 0.00 82 1023.7
20200710134336 56 167 0.0 0.0 0.00 0.00 0.00 83 1023.6
20200710133838 56 167 0.0 0.0 0.00 0.00 0.00 83 1023.6
20200710133336 56 167 0.0 0.0 0.00 0.00 0.00 84 1023.6
20200710132835 56 167 0.0 0.0 0.00 0.00 0.00 86 1023.5
20200710132335 56 167 0.0 0.0 0.00 0.00 0.00 85 1023.5
20200710131338 55 167 0.0 0.0 0.00 0.00 0.00 86 1023.5
20200710130836 55 164 0.0 0.0 0.00 0.00 0.00 86 1023.4
20200710130335 55 164 0.0 0.0 0.00 0.00 0.00 85 1023.3
20200710125834 55 164 0.0 0.0 0.00 0.00 0.00 84 1023.3
20200710125333 55 164 0.0 0.0 0.00 0.00 0.00 84 1023.3
20200710124834 55 164 0.0 0.0 0.00 0.00 0.00 83 1023.2
20200710124332 55 164 0.0 0.0 0.00 0.00 0.00 83 1023.2
20200710123837 56 164 0.0 0.0 0.00 0.00 0.00 83 1023.2
20200710123336 56 164 0.0 0.0 0.00 0.00 0.00 83 1023.1
20200710122831 56 164 0.0 0.0 0.00 0.00 0.00 83 1023.0
20200710122334 55 189 0.0 0.0 0.00 0.00 0.00 83 1023.0
20200710121835 56 184 0.0 0.0 0.00 0.00 0.00 83 1022.9
20200710121335 56 184 0.0 0.0 0.00 0.00 0.00 83 1022.9
20200710120837 56 185 0.0 0.0 0.00 0.00 0.00 83 1022.8
20200710120335 56 98 0.0 0.0 0.00 0.00 0.00 83 1022.8
20200710115834 56 98 0.0 0.0 0.00 0.00 0.00 83 1022.8
20200710115340 56 98 0.0 0.0 0.00 0.00 0.00 82 1022.7
20200710114831 56 98 0.0 1.0 0.00 0.00 0.00 83 1022.7
20200710114335 57 98 0.0 1.0 0.00 0.00 0.00 82 1022.6
20200710113836 57 97 0.0 1.0 0.00 0.00 0.00 82 1022.5
20200710113334 57 98 0.0 0.0 0.00 0.00 0.00 82 1022.5
20200710112837 57 98 0.0 1.0 0.00 0.00 0.00 81 1022.4
20200710112331 58 100 0.0 1.0 0.00 0.00 0.00 81 1022.4
20200710111834 58 100 0.0 1.0 0.00 0.00 0.00 81 1022.3
20200710111336 58 101 0.0 4.0 0.00 0.00 0.00 81 1022.2
20200710110837 58 218 0.0 4.0 0.00 0.00 0.00 81 1022.1
20200710110336 58 113 0.0 0.0 0.00 0.00 0.00 83 1022.1
20200710105831 57 88 0.0 0.0 0.00 0.00 0.00 84 1022.1
20200710105334 57 85 0.0 0.0 0.00 0.00 0.00 83 1022.1
20200710104835 58 85 0.0 0.0 0.00 0.00 0.00 83 1022.2
20200710104336 58 85 0.0 0.0 0.00 0.00 0.00 83 1022.1
20200710103836 58 85 0.0 0.0 0.00 0.00 0.00 83 1022.1
20200710103335 58 85 0.0 0.0 0.00 0.00 0.00 82 1022.0
20200710102833 58 85 0.0 0.0 0.00 0.00 0.00 82 1022.0
20200710102338 58 85 0.0 1.0 0.00 0.00 0.00 82 1022.1
20200710101837 59 85 0.0 3.0 0.00 0.00 0.00 82 1022.0
20200710101336 59 87 0.0 1.0 0.00 0.00 0.00 82 1022.0
20200710100835 59 87 0.0 1.0 0.00 0.00 0.00 82 1021.9
20200710100336 59 86 0.0 1.0 0.00 0.00 0.00 82 1021.8
20200710095836 59 109 0.0 1.0 0.00 0.00 0.00 82 1021.8
20200710095336 59 109 0.0 1.0 0.00 0.00 0.00 82 1021.7
20200710094836 59 109 0.0 1.0 0.00 0.00 0.00 81 1021.7
20200710094334 59 105 0.0 0.0 0.00 0.00 0.00 81 1021.8
20200710093834 59 105 0.0 0.0 0.00 0.00 0.00 80 1021.7
20200710093336 60 105 0.0 0.0 0.00 0.00 0.00 81 1021.6
20200710092835 60 105 0.0 1.0 0.00 0.00 0.00 80 1021.6
20200710092339 60 106 0.0 1.0 0.00 0.00 0.00 80 1021.6
20200710091839 60 106 0.0 1.0 0.00 0.00 0.00 80 1021.6
20200710091336 60 106 0.0 1.0 0.00 0.00 0.00 79 1021.6
20200710090832 60 105 0.0 0.0 0.00 0.00 0.00 79 1021.6
20200710090333 61 105 0.0 1.0 0.00 0.00 0.00 78 1021.5
20200710085837 61 105 0.0 2.0 0.00 0.00 0.00 78 1021.5
20200710085335 61 114 0.0 1.0 0.00 0.00 0.00 78 1021.5
20200710084832 61 80 0.0 1.0 0.00 0.00 0.00 78 1021.5
20200710084331 61 81 0.0 1.0 0.00 0.00 0.00 79 1021.4
20200710083833 62 81 0.0 1.0 0.00 0.00 0.00 78 1021.4
20200710083334 62 81 0.0 2.0 0.00 0.00 0.00 77 1021.4
20200710082830 62 80 1.0 2.0 0.00 0.00 0.00 77 1021.3
20200710082334 62 165 0.0 1.0 0.00 0.00 0.00 77 1021.2
20200710081835 62 63 0.0 1.0 0.00 0.00 0.00 77 1021.2
20200710081335 62 63 0.0 1.0 0.00 0.00 0.00 77 1021.3
20200710080901 62 83 0.0 0.0 0.00 0.00 0.00 77 1021.3
20200710080339 62 83 0.0 0.0 0.00 0.00 0.00 77 1021.3
20200710075843 62 87 0.0 1.0 0.00 0.00 0.00 77 1021.3
20200710075349 63 88 0.0 1.0 0.00 0.00 0.00 77 1021.2
20200710074848 63 70 0.0 1.0 0.00 0.00 0.00 77 1021.2
20200710074332 63 70 0.0 1.0 0.00 0.00 0.00 76 1021.2
20200710073826 63 70 0.0 1.0 0.00 0.00 0.00 76 1021.0
20200710073327 63 70 0.0 1.0 0.00 0.00 0.00 76 1021.1
20200710072840 63 69 0.0 1.0 0.00 0.00 0.00 75 1021.1
20200710072333 63 70 0.0 2.0 0.00 0.00 0.00 75 1021.1
20200710071859 63 69 0.0 2.0 0.00 0.00 0.00 75 1021.0
20200710071338 63 134 0.0 1.0 0.00 0.00 0.00 75 1020.9
20200710070845 63 51 0.0 2.0 0.00 0.00 0.00 75 1020.8
20200710070344 63 74 0.0 2.0 0.00 0.00 0.00 75 1020.8
20200710065842 63 88 1.0 2.0 0.00 0.00 0.00 74 1020.6
20200710065335 63 322 0.0 2.0 0.00 0.00 0.00 74 1020.5
20200710064855 63 185 0.0 2.0 0.00 0.00 0.00 73 1020.5
20200710064330 64 329 0.0 2.0 0.00 0.00 0.00 73 1020.5
20200710063832 64 149 0.0 2.0 0.00 0.00 0.00 73 1020.5
20200710063347 64 188 0.0 1.0 0.00 0.00 0.00 72 1020.4
20200710062838 64 187 0.0 2.0 0.00 0.00 0.00 72 1020.4
20200710062335 64 169 0.0 4.0 0.00 0.00 0.00 72 1020.3
20200710061830 64 169 0.0 4.0 0.00 0.00 0.00 71 1020.3
20200710061321 65 86 1.0 2.0 0.00 0.00 0.00 70 1020.2
20200710060832 65 171 0.0 3.0 0.00 0.00 0.00 70 1020.1
20200710060337 65 143 1.0 5.0 0.00 0.00 0.00 69 1020.1
20200710055830 66 117 1.0 5.0 0.00 0.00 0.00 69 1020.0
20200710055329 66 187 0.0 1.0 0.00 0.00 0.00 70 1020.2
20200710054828 66 187 0.0 2.0 0.00 0.00 0.00 69 1020.2
20200710054328 66 46 0.0 2.0 0.00 0.00 0.00 70 1020.2
20200710053825 66 98 0.0 4.0 0.00 0.00 0.00 69 1020.1
20200710053340 66 142 0.0 4.0 0.00 0.00 0.00 70 1020.1
20200710052843 67 97 0.0 1.0 0.00 0.00 0.00 70 1020.1
20200710052338 67 98 0.0 3.0 0.00 0.00 0.00 70 1020.0
20200710051837 67 108 0.0 3.0 0.00 0.00 0.00 70 1020.0
20200710051332 67 76 0.0 1.0 0.00 0.00 0.00 70 1020.1
20200710050835 68 323 0.0 1.0 0.00 0.00 0.00 70 1020.1
20200710050336 68 322 0.0 1.0 0.00 0.00 0.00 70 1020.0
20200710045834 68 136 0.0 3.0 0.00 0.00 0.00 69 1019.9
20200710045333 68 145 0.0 3.0 0.00 0.00 0.00 70 1019.9
20200710044832 68 153 1.0 3.0 0.00 0.00 0.00 70 1019.6
20200710044422 68 115 0.0 2.0 0.00 0.00 0.00 70 1019.6
20200710043840 68 75 0.0 4.0 0.00 0.00 0.00 70 1019.6
20200710043335 68 132 0.0 4.0 0.00 0.00 0.00 70 1019.6
20200710042831 68 160 0.0 2.0 0.00 0.00 0.00 71 1019.5
20200710042332 68 191 0.0 2.0 0.00 0.00 0.00 72 1019.3
20200710041840 68 231 0.0 5.0 0.00 0.00 0.00 71 1019.2
20200710041340 68 88 1.0 5.0 0.00 0.00 0.00 71 1019.0
20200710040840 68 153 0.0 1.0 0.00 0.00 0.00 72 1019.0
20200710040335 68 46 0.0 2.0 0.00 0.00 0.00 72 1018.9
20200710035826 69 144 0.0 2.0 0.00 0.00 0.00 72 1018.9
20200710035343 69 144 0.0 2.0 0.00 0.00 0.00 73 1018.7
20200710034839 69 68 0.0 1.0 0.00 0.00 0.00 72 1018.6
20200710034338 69 65 0.0 2.0 0.00 0.00 0.00 71 1018.7
20200710033837 69 326 0.0 2.0 0.00 0.00 0.00 71 1018.7
20200710033336 69 144 0.0 1.0 0.00 0.00 0.00 70 1018.6
20200710032832 69 205 0.0 2.0 0.00 0.00 0.00 71 1018.5
20200710032336 69 115 0.0 1.0 0.00 0.00 0.00 69 1018.5
20200710031836 70 114 0.0 1.0 0.00 0.00 0.00 69 1018.4
20200710031335 70 114 0.0 2.0 0.00 0.00 0.00 69 1018.4
20200710030835 70 353 0.0 2.0 0.00 0.00 0.00 68 1018.4
20200710030332 70 118 0.0 2.0 0.00 0.00 0.00 68 1018.4
20200710025833 71 122 0.0 3.0 0.00 0.00 0.00 67 1018.3
20200710025332 71 118 0.0 3.0 0.00 0.00 0.00 65 1018.3
20200710024834 71 9 0.0 0.0 0.00 0.00 0.00 64 1018.2
20200710024332 72 343 0.0 0.0 0.00 0.00 0.00 63 1018.3
20200710023830 72 169 0.0 0.0 0.00 0.00 0.00 64 1018.3
20200710023322 72 169 0.0 0.0 0.00 0.00 0.00 64 1018.2
20200710022822 72 169 0.0 0.0 0.00 0.00 0.00 63 1018.2
20200710022349 73 169 0.0 0.0 0.00 0.00 0.00 62 1018.2
20200710021328 73 169 0.0 0.0 0.00 0.00 0.00 60 1018.2
20200710020836 73 169 0.0 0.0 0.00 0.00 0.00 59 1018.3
20200710020332 74 169 0.0 0.0 0.00 0.00 0.00 58 1018.2
20200710015836 74 169 0.0 0.0 0.00 0.00 0.00 58 1018.2
20200710015336 74 169 0.0 0.0 0.00 0.00 0.00 58 1018.2
20200710014834 74 169 0.0 0.0 0.00 0.00 0.00 58 1018.1
20200710014335 74 169 0.0 0.0 0.00 0.00 0.00 57 1018.1
20200710013835 74 169 0.0 0.0 0.00 0.00 0.00 59 1018.2
20200710013330 74 169 0.0 0.0 0.00 0.00 0.00 56 1018.0
20200710012831 74 165 0.0 0.0 0.00 0.00 0.00 54 1018.0
20200710012330 74 165 0.0 0.0 0.00 0.00 0.00 58 1018.1
20200710011831 75 165 0.0 0.0 0.00 0.00 0.00 55 1018.1
20200710011331 75 165 0.0 0.0 0.00 0.00 0.00 54 1018.2
20200710010822 75 239 0.0 0.0 0.00 0.00 0.00 56 1018.2
20200710010327 75 240 0.0 0.0 0.00 0.00 0.00 56 1018.1
20200710005822 75 180 0.0 0.0 0.00 0.00 0.00 56 1018.2
20200710005336 75 181 0.0 0.0 0.00 0.00 0.00 57 1018.2
20200710004825 75 181 0.0 0.0 0.00 0.00 0.00 55 1018.3
20200710004326 75 172 0.0 0.0 0.00 0.00 0.00 53 1018.2